Quincy, IL

1:45 PM CDT on September 15, 2019 (GMT -0500)
Quincy Regional-Baldwin

Weather History for KUIN - August, 2019

Change the Weather History Date:

Monday, August 19, 2019

  Actual Average Record
Temperature  
Mean Temperature 80 °F 74 °F  
Max Temperature 90 °F 85 °F 106 °F (1936)
Min Temperature 69 °F 64 °F 46 °F (1950)
Degree Days  
Heating Degree Days 0 0  
Month to date heating degree days 0 0  
Since 1 June heating degree days 5 16  
Since 1 July heating degree days 0 0  
Cooling Degree Days 15 10  
Month to date cooling degree days 207 195  
Year to date cooling degree days 987 851  
Since 1 June cooling degree days 877 765  
Growing Degree Days 30 (Base 50)    
Moisture  
Dew Point 71 °F    
Average Humidity 77    
Maximum Humidity 97    
Minimum Humidity 56    
Precipitation  
Precipitation 0.00 in 0.11 in 2.00 in (2009)
Month to date precipitation 2.73 2.24  
Year to date precipitation 27.69 24.36  
Sea Level Pressure  
Sea Level Pressure 29.96 in    
Wind  
Wind Speed 4 mph (SSE)    
Max Wind Speed 8 mph    
Max Gust Speed 12 mph    
Visibility 10 miles    
Events      
T = Trace of Precipitation, MM = Missing Value Source: NWS Daily Summary

Daily Weather History Graph

Daily Weather History Graph

Search for Another Location

Airport or City:

Astronomy

Aug. 19, 2019 Rise Set
Actual Time 6:20 AM CDT 7:56 PM CDT
Civil Twilight 5:51 AM CDT 8:24 PM CDT
Nautical Twilight 5:16 AM CDT 8:59 PM CDT
Astronomical Twilight 4:39 AM CDT 9:35 PM CDT
Moon 10:17 PM CDT (8/19) 10:01 AM CDT (8/19)
Length of Visible Light 14h 33m
Length of Day
13h 35m
Waning Gibbous, 85% of the Moon is Illuminated
Aug 19
Waning Gibbous
Aug 23
Last Quarter
Aug 30
New
Sep 5
First Quarter
Sep 13
Full

Hourly Weather History & Observations

Time (CDT) Temp. Heat Index Dew Point Humidity Pressure Visibility Wind Dir Wind Speed Gust Speed Precip Events Conditions
12:54 AM 73.0 °F - 70.0 °F 90% 29.92 in 10.0 mi Calm Calm - N/A   Clear
1:54 AM 71.1 °F - 69.1 °F 93% 29.92 in 10.0 mi South 4.6 mph - N/A   Clear
2:54 AM 71.1 °F - 69.1 °F 93% 29.91 in 7.0 mi Calm Calm - N/A   Clear
3:54 AM 71.1 °F - 69.1 °F 93% 29.92 in 8.0 mi SE 5.8 mph - N/A   Clear
4:54 AM 70.0 °F - 68.0 °F 93% 29.93 in 10.0 mi ENE 4.6 mph - N/A   Clear
5:54 AM 70.0 °F - 68.0 °F 93% 29.95 in 7.0 mi South 5.8 mph - N/A   Clear
6:54 AM 70.0 °F - 68.0 °F 93% 29.98 in 6.0 mi Calm Calm - N/A   Clear
7:54 AM 75.0 °F - 72.0 °F 90% 29.98 in 10.0 mi South 3.5 mph - N/A   Clear
8:54 AM 79.0 °F - 73.0 °F 82% 29.98 in 10.0 mi South 5.8 mph - N/A   Clear
9:54 AM 82.9 °F 88.8 °F 73.0 °F 72% 29.99 in 10.0 mi SSW 5.8 mph - N/A   Clear
10:54 AM 84.0 °F 89.6 °F 72.0 °F 67% 29.99 in 10.0 mi Variable 5.8 mph - N/A   Clear
11:54 AM 87.1 °F 92.8 °F 71.1 °F 59% 29.99 in 10.0 mi SSW 4.6 mph - N/A   Clear
12:54 PM 88.0 °F 93.8 °F 71.1 °F 57% 29.98 in 10.0 mi North - - N/A   Clear
1:54 PM 89.1 °F 95.0 °F 71.1 °F 55% 29.98 in 10.0 mi Calm Calm - N/A   Mostly Cloudy
2:54 PM 87.1 °F 92.8 °F 71.1 °F 59% 29.97 in 10.0 mi ENE 3.5 mph - N/A   Overcast
3:54 PM 88.0 °F 93.8 °F 71.1 °F 57% 29.95 in 10.0 mi Calm Calm - N/A   Mostly Cloudy
4:54 PM 89.1 °F 96.0 °F 72.0 °F 57% 29.95 in 10.0 mi WSW 4.6 mph - N/A   Scattered Clouds
5:54 PM 89.1 °F 97.0 °F 73.0 °F 59% 29.95 in 10.0 mi South 6.9 mph - N/A   Scattered Clouds
6:54 PM 87.1 °F 94.5 °F 73.0 °F 63% 29.94 in 10.0 mi South 4.6 mph - N/A   Clear
7:54 PM 82.9 °F 90.2 °F 75.0 °F 77% 29.94 in 10.0 mi SSE 4.6 mph - N/A   Clear
8:54 PM 81.0 °F 86.2 °F 73.9 °F 79% 29.97 in 10.0 mi SE 4.6 mph - N/A   Clear
9:54 PM 79.0 °F - 73.0 °F 82% 29.98 in 10.0 mi SSE 5.8 mph - N/A   Clear
10:54 PM 80.1 °F 83.8 °F 72.0 °F 76% 29.98 in 10.0 mi SSE 5.8 mph - N/A   Clear
11:54 PM 80.1 °F 83.8 °F 72.0 °F 76% 29.98 in 10.0 mi SSE 5.8 mph - N/A   Clear